User: anonymous   Login
Location: *
(48.7358°N, 0.3111°E)
Time: 07:45:38
(UTC+00:00)
Language:

Cosmos 1606 Rocket - Orbit

View from above orbital plane
View from above orbital plane
View from above satellite
View from above satellite

Ground track
Ground track

The orbit data is extracted from the following two-line orbital elements,

1 15370U 84111B   19348.93121861 +.00000071 +00000-0 +56663-5 0  9996
2 15370 082.5175 233.6667 0019487 292.7376 067.1779 14.83704008878111
Epoch (UTC): 14 December 2019 22:20:57
Eccentricity: 0.0019487
inclination: 82.5175°
perigee height: 604 km
apogee height: 631 km
right ascension of ascending node: 233.6667°
argument of perigee: 292.7376°
revolutions per day: 14.83704008
mean anomaly at epoch: 67.1779°
orbit number at epoch: 87811

The dashed part of the orbit path shows where the satellite is in the earth's shadow,  

DLR